Theta_e
312 312 312 312 313 313 314 314 316 317 317 318 318 318 317 317 316 315 315 314 314 314 317 317 316 316 315 315 314 314 314 314 314 314 314 314 315 318 320 320 319 319 318 318 318 318 317 317 315 314 316 317 318 319 318 317 316 319 329 329 321 322 324 321 320 315 316 319 312 308 310 312 313 310 309 310 309 309 309 309 310 310 310 310 310 309 309 309
311 311 311 311 312 312 312 313 314 314 315 316 317 318 317 317 317 316 316 315 315 314 314 317 317 316 316 316 314 314 315 315 314 314 314 314 315 317 319 320 319 319 318 319 320 320 320 319 316 314 316 318 318 318 318 317 315 319 328 324 320 326 321 315 315 311 312 315 310 309 310 310 313 311 309 311 310 308 309 309 309 309 310 310 310 309 308 308
311 311 311 311 311 311 311 312 312 313 314 314 315 316 316 317 317 317 316 316 316 315 314 314 317 317 317 316 315 315 315 316 315 315 314 314 315 317 319 320 319 319 318 319 319 320 320 320 316 315 316 317 317 317 316 316 315 315 320 323 324 322 315 311 312 312 313 312 309 309 309 309 311 311 310 310 309 306 308 310 308 309 310 310 309 308 308 308
311 311 310 310 311 310 311 311 311 312 312 312 313 313 314 315 316 316 316 316 316 316 315 314 315 317 317 317 316 316 316 317 317 316 315 314 316 317 317 319 319 318 318 318 319 319 320 320 316 314 316 316 315 316 315 314 315 314 317 324 320 312 313 314 312 313 312 311 310 309 309 309 310 310 309 309 310 309 308 311 311 312 313 311 309 308 308 308
311 310 310 310 310 310 310 310 310 310 311 311 311 312 312 313 314 314 315 315 315 316 316 315 314 315 317 317 317 316 316 319 319 316 316 315 316 317 317 318 318 318 317 318 318 318 320 319 316 315 316 316 315 316 314 312 314 314 314 315 312 309 314 314 311 313 312 311 311 308 310 311 310 309 309 309 312 313 311 313 314 313 313 312 311 310 308 307
311 310 310 310 310 310 310 310 310 310 310 310 310 310 311 311 311 312 313 313 314 314 315 315 315 315 316 317 318 316 317 320 319 316 316 316 316 317 317 317 318 318 317 317 317 317 319 320 318 316 315 315 315 315 314 312 312 315 314 310 310 310 313 313 312 313 312 311 310 309 311 311 309 309 310 308 311 313 312 313 313 312 312 311 311 310 309 308
310 310 310 310 310 310 310 310 310 310 310 310 310 310 310 310 310 311 311 312 312 313 314 314 315 315 315 316 317 317 317 318 318 317 316 316 316 316 317 317 317 317 317 317 317 317 318 319 318 315 314 314 314 313 313 311 310 316 316 310 311 311 311 313 312 312 313 312 311 310 310 309 310 311 309 308 311 313 312 312 312 312 312 310 310 309 309 309
310 310 310 310 310 310 310 310 310 310 310 310 310 310 310 310 310 310 310 311 311 311 312 313 314 314 315 315 317 318 318 318 318 318 316 316 316 316 317 316 316 317 317 316 317 318 318 319 318 316 315 313 314 313 311 311 311 314 315 311 311 311 312 313 312 313 312 312 312 310 310 309 310 309 307 309 312 312 311 312 311 311 311 310 309 309 309 308
310 310 310 310 310 310 310 310 310 310 310 310 310 310 310 309 310 310 310 310 310 310 311 311 313 314 315 315 316 317 317 317 318 317 316 315 316 316 316 316 316 316 316 316 316 317 318 318 317 317 316 313 313 313 310 312 313 312 313 312 311 311 312 312 312 312 311 311 311 310 310 309 309 308 308 311 312 311 311 311 311 310 310 310 309 309 309 308
311 310 310 310 310 310 310 310 310 310 310 310 310 310 310 310 310 310 310 310 310 310 310 310 312 314 315 315 316 316 315 316 317 318 316 315 315 315 316 316 316 316 316 316 316 317 318 318 317 316 316 314 313 311 310 312 313 311 311 311 311 311 311 311 311 311 311 310 309 310 311 309 307 308 310 312 311 310 310 310 310 310 309 310 310 309 308 308
311 311 311 311 310 310 310 311 310 310 310 310 310 310 310 310 310 310 310 310 310 310 310 310 311 313 314 315 316 315 314 315 316 318 317 316 315 315 315 315 315 316 315 315 316 316 317 318 317 315 316 315 313 311 310 311 312 310 309 311 309 308 309 309 309 309 309 310 309 309 308 307 306 308 311 310 310 310 309 310 309 309 309 309 309 309 308 307
311 311 311 311 310 311 311 311 311 311 311 310 310 310 310 310 310 310 311 310 310 310 310 310 311 313 314 314 315 315 314 315 316 317 317 318 317 315 315 315 315 315 315 315 315 316 316 318 317 315 316 314 313 311 311 311 310 309 310 313 313 313 313 309 308 308 308 310 308 308 309 310 308 309 311 310 309 309 308 309 309 309 309 308 308 308 308 307
311 311 311 311 310 311 311 311 311 311 312 312 311 311 310 310 310 310 310 311 310 310 310 311 312 314 314 314 315 315 315 315 316 316 317 318 316 315 314 314 315 315 315 315 315 316 316 318 317 316 315 313 313 312 312 309 308 311 309 312 318 320 319 309 305 307 307 310 308 308 315 317 312 309 310 310 308 308 308 308 308 308 308 308 308 307 307 307
311 311 311 310 311 311 311 311 312 312 312 313 312 312 311 311 311 311 310 311 310 310 311 311 312 313 314 314 314 314 315 315 316 316 317 317 315 315 314 314 315 314 315 314 315 315 315 317 317 315 314 313 312 310 313 311 310 313 309 314 320 318 321 314 305 307 309 309 307 309 316 318 315 311 311 311 308 307 307 308 308 308 308 307 307 307 307 307
310 311 311 310 311 311 312 312 312 313 313 313 313 312 312 311 312 311 311 311 311 311 311 311 312 313 314 314 314 315 315 315 316 316 316 316 315 314 314 314 314 314 315 314 315 315 315 316 316 315 313 312 312 314 321 319 318 318 312 321 324 315 324 320 305 305 310 309 306 309 315 315 314 311 310 310 308 307 306 307 308 307 308 307 307 307 307 307
310 311 311 311 311 311 312 312 312 312 312 313 313 313 312 311 312 311 312 311 311 311 310 311 312 314 315 315 315 315 315 316 316 316 316 316 314 314 313 313 314 314 314 314 314 315 315 316 314 313 312 311 316 324 326 323 325 324 315 321 327 318 320 320 308 303 306 308 307 308 313 316 314 310 309 309 308 306 305 305 307 307 307 307 306 306 306 306
311 311 311 311 311 311 312 311 312 312 312 312 312 312 312 311 311 311 312 311 311 311 311 313 314 315 316 316 315 315 316 317 316 316 316 315 314 313 313 313 314 314 314 314 315 315 314 315 313 312 313 310 316 325 322 320 326 327 318 318 324 319 314 317 315 306 302 307 310 309 310 312 313 310 308 309 308 306 304 304 307 307 307 306 306 306 305 305
311 311 311 311 311 312 311 311 311 312 312 311 311 312 311 311 311 311 311 311 311 312 312 314 315 316 316 314 315 316 316 316 316 316 315 315 314 313 313 313 314 314 314 313 313 315 314 313 313 318 319 313 315 321 319 321 325 322 320 320 321 318 314 315 317 309 305 308 310 310 310 309 310 310 308 308 307 306 305 305 306 306 307 305 305 305 305 305
312 312 312 311 312 312 312 311 311 312 312 311 310 310 310 310 310 310 311 312 313 314 314 315 315 317 315 313 314 314 314 315 315 316 315 315 314 314 314 313 314 314 313 315 315 314 313 313 315 320 322 318 317 319 320 326 326 320 321 322 321 319 315 315 314 307 304 308 309 309 309 308 308 309 308 308 307 305 305 304 304 304 305 303 303 304 305 305
312 312 312 312 312 312 311 311 311 311 311 311 310 310 310 310 311 313 312 311 312 313 313 314 314 314 314 313 313 313 313 314 315 315 315 315 314 314 314 314 314 314 314 319 321 313 311 317 319 319 322 323 323 318 317 322 320 317 318 318 317 316 314 313 312 307 302 307 311 309 308 308 307 307 307 307 306 304 303 302 301 303 303 302 302 304 305 305
311 312 312 313 313 312 312 311 311 311 310 310 309 309 309 309 312 314 311 311 312 311 312 312 312 312 312 312 312 312 313 314 314 315 314 314 314 314 314 313 313 317 314 313 315 311 312 317 319 320 319 318 319 314 312 314 312 313 315 315 314 314 314 311 309 307 304 306 311 311 309 308 306 307 306 306 306 305 304 302 302 303 303 302 302 303 304 305
309 309 310 311 312 312 312 312 312 311 310 310 309 308 308 309 311 311 310 312 312 310 311 311 311 311 311 311 311 311 312 314 313 314 314 313 314 314 313 313 316 319 314 309 314 315 316 319 319 316 307 307 310 309 312 315 313 315 315 314 315 314 314 313 308 306 305 306 311 312 309 308 308 307 307 307 307 308 308 306 305 305 303 303 303 304 304 304
308 308 308 308 309 309 310 312 312 312 310 309 308 308 308 309 310 310 311 313 313 311 310 311 311 311 311 311 311 311 312 314 313 313 313 312 313 313 312 313 317 319 315 315 319 318 320 322 315 305 302 310 312 308 312 314 313 316 314 315 318 314 314 316 312 308 307 307 308 310 307 307 308 307 308 308 306 307 308 307 307 306 305 305 305 306 305 305
309 308 308 307 307 307 308 309 310 311 310 309 309 308 309 309 311 311 312 312 313 312 310 311 311 310 312 311 311 312 312 313 313 312 313 312 313 312 311 312 317 318 315 317 319 318 321 317 304 299 305 316 317 310 311 312 314 318 315 315 317 315 315 316 313 309 310 309 306 308 310 311 312 310 310 308 304 305 305 305 306 305 305 306 305 306 306 306
310 309 309 309 307 306 306 307 309 310 310 310 309 309 309 311 311 312 312 312 313 312 311 311 312 311 312 312 313 313 312 313 312 312 313 312 313 312 311 310 313 317 317 317 317 318 319 309 302 307 309 314 317 315 314 314 316 320 318 315 315 316 315 313 312 310 315 316 307 308 314 314 315 314 314 312 310 310 307 306 306 305 305 305 305 307 307 306
311 310 310 310 309 307 306 307 309 309 310 310 310 310 310 311 313 314 312 311 313 313 312 312 314 315 313 314 314 311 314 315 312 313 313 312 313 311 313 311 310 315 317 315 315 317 315 304 305 315 314 312 314 315 316 314 314 318 317 314 312 312 311 311 311 311 318 318 308 309 315 315 313 315 320 319 317 317 312 311 310 306 306 306 306 308 308 308
313 312 311 311 310 309 307 307 309 310 310 311 311 311 310 311 312 312 309 309 311 313 314 313 314 315 314 314 313 313 318 317 311 311 312 312 312 310 314 314 310 311 309 310 316 316 311 306 307 313 314 313 313 315 316 312 316 319 312 311 313 311 312 313 310 310 314 311 309 311 311 312 312 313 317 316 315 315 312 312 311 307 306 306 307 309 309 309
314 313 312 311 310 309 307 307 309 310 310 312 312 310 310 311 311 310 307 306 309 314 317 315 313 313 314 313 312 312 314 313 312 312 310 310 311 309 313 314 315 315 306 309 321 315 309 312 313 312 313 314 314 317 314 310 316 318 307 308 312 311 312 313 309 310 309 307 312 313 307 310 313 312 312 310 310 314 313 314 313 309 307 307 309 311 310 310
313 312 311 309 309 309 307 307 309 310 311 312 310 310 310 310 309 309 308 306 311 317 316 314 314 313 313 312 311 310 310 310 311 311 308 309 310 309 311 310 310 313 306 308 321 315 308 310 309 311 316 316 315 310 305 311 315 309 303 307 309 309 310 310 309 310 309 309 314 314 308 311 315 315 313 309 310 314 314 315 313 308 306 307 310 312 311 311
313 312 310 308 308 308 307 308 308 310 312 311 310 310 309 310 310 308 308 307 311 315 312 312 314 313 312 314 314 310 310 310 309 308 307 308 309 308 309 309 307 312 313 310 316 313 305 303 304 309 312 310 309 303 299 306 307 302 305 310 311 310 307 307 310 310 311 315 315 312 309 310 314 316 314 312 313 317 316 315 313 309 306 308 311 312 312 311
313 313 311 309 308 308 308 309 309 310 311 310 310 309 309 312 314 311 308 307 309 312 313 314 313 313 315 318 319 313 310 310 307 307 309 308 308 308 309 310 309 315 320 315 316 312 305 305 307 307 305 304 307 307 301 300 300 303 312 314 314 315 311 312 314 312 315 318 315 311 307 307 312 314 312 312 312 314 316 317 320 315 309 310 313 312 311 311
313 313 312 310 308 307 308 309 310 310 310 310 309 309 311 313 312 310 307 306 309 313 317 319 314 314 316 316 319 315 312 313 308 307 311 310 310 311 311 314 315 317 321 319 319 317 313 311 308 305 303 304 313 314 306 303 303 307 315 317 317 317 317 319 319 315 318 318 311 306 306 307 310 311 310 311 312 311 309 311 316 314 310 312 313 311 310 310
313 313 312 311 309 308 307 308 310 310 310 309 308 309 313 312 310 309 309 308 310 312 315 319 315 315 316 316 319 315 312 317 310 306 310 310 310 311 311 315 316 315 319 318 316 318 319 313 306 307 307 305 311 315 312 311 308 307 313 318 319 318 320 323 320 315 315 316 310 304 307 310 310 311 311 310 311 311 305 305 310 311 311 312 311 310 310 310
313 313 313 311 310 309 307 308 310 310 310 308 307 310 313 311 309 310 311 309 310 312 314 317 314 314 315 317 321 317 314 318 313 308 310 310 310 313 313 313 312 315 318 316 315 318 319 316 311 312 311 307 309 312 314 315 308 307 313 314 316 322 324 323 322 318 316 319 312 305 309 314 312 313 313 309 307 307 306 306 309 310 310 310 309 309 309 309
313 313 313 312 310 309 308 308 310 310 308 307 308 311 311 310 311 312 312 310 311 315 315 313 314 315 316 317 318 315 314 316 314 311 311 311 313 315 316 313 310 315 319 317 317 316 314 317 315 307 305 306 308 307 308 313 310 307 310 312 313 318 318 316 317 315 314 317 314 309 311 314 311 311 312 309 307 306 306 305 305 307 308 306 306 308 309 310
314 314 314 312 311 310 308 307 309 310 307 307 310 311 309 310 316 315 312 310 313 317 315 313 316 317 317 319 319 315 312 313 314 313 313 312 313 314 315 314 310 311 315 315 318 316 314 318 312 303 303 304 304 304 304 309 311 308 309 312 312 311 313 316 314 309 309 314 315 314 314 311 310 311 310 310 309 307 307 304 302 304 305 303 304 308 309 310
315 314 314 313 312 311 309 308 310 310 307 307 310 311 309 309 313 313 311 309 312 317 316 313 314 316 318 319 320 317 313 312 312 313 315 313 313 314 314 315 310 308 312 314 317 319 317 317 310 306 309 304 298 301 302 302 306 310 313 312 308 307 311 316 317 314 313 315 316 316 314 311 312 312 309 308 308 309 309 307 304 303 302 301 304 308 310 309
316 315 314 315 314 312 309 307 310 310 307 306 309 312 312 309 306 306 309 308 310 315 315 311 311 314 318 318 318 316 313 314 314 313 316 316 314 315 313 314 311 308 309 311 315 319 316 315 313 306 308 304 297 302 307 302 300 306 309 306 307 313 314 313 315 316 316 315 317 319 314 311 312 312 310 310 311 311 309 307 305 305 301 299 303 308 310 309
317 315 314 314 314 312 308 308 311 310 306 306 308 311 312 311 306 304 307 309 311 313 313 311 310 310 315 316 317 316 312 313 314 313 315 315 314 314 312 314 314 308 307 309 314 317 313 315 316 305 302 304 302 305 312 307 301 301 303 302 306 312 315 314 313 314 316 314 314 316 312 312 313 314 315 312 311 313 312 309 308 307 302 299 304 310 310 310
316 314 313 313 314 311 309 309 311 309 306 306 308 308 308 309 308 307 307 308 310 311 311 314 312 309 313 315 316 318 314 313 313 312 314 315 315 314 311 313 316 310 306 308 311 314 313 314 315 308 301 305 307 308 310 310 305 303 305 306 305 307 310 312 310 311 316 315 314 314 312 312 313 314 316 314 312 313 311 311 312 307 302 303 308 310 310 310
316 313 312 312 312 310 309 310 310 309 309 309 308 308 307 307 308 308 308 307 308 309 309 315 316 311 311 313 314 316 315 314 313 311 314 315 314 314 311 310 313 311 308 309 311 313 315 315 315 313 309 308 310 307 305 308 308 306 306 307 306 306 309 311 310 310 311 313 316 316 312 311 312 313 315 314 315 315 309 310 312 306 303 307 310 310 310 310
314 312 313 312 311 309 309 310 310 310 311 311 309 308 308 307 308 308 307 307 307 307 307 312 316 312 310 311 313 315 315 317 315 311 313 315 312 312 312 308 307 308 310 313 311 310 314 316 314 314 314 311 306 302 299 304 308 307 307 308 307 307 309 312 312 311 310 310 311 312 311 310 312 316 318 317 317 313 305 305 309 305 304 309 310 309 310 309
313 312 312 311 310 309 310 311 311 310 311 311 310 309 308 308 308 308 308 307 307 308 308 309 311 310 310 311 313 314 314 315 316 313 314 317 314 311 309 307 307 309 312 313 311 309 311 315 313 312 315 310 303 300 300 302 306 308 308 307 306 306 307 310 311 310 312 311 310 310 310 310 311 316 320 318 313 305 300 301 304 303 304 308 309 309 309 308
313 312 310 310 310 309 310 312 312 311 310 310 311 310 309 309 309 309 309 308 308 310 310 308 308 309 310 311 311 312 312 311 313 313 313 317 316 309 306 307 308 311 312 312 312 311 312 315 314 313 315 313 308 305 305 305 306 308 310 307 306 306 307 309 308 307 310 310 309 311 311 309 310 313 314 312 308 305 302 301 301 301 304 307 308 308 307 307
313 311 309 309 309 309 310 312 312 312 311 310 311 311 310 310 309 309 309 308 307 309 309 309 308 308 310 312 310 310 311 310 311 311 312 316 314 305 303 307 308 309 310 309 309 310 313 316 313 312 314 313 312 310 311 311 307 306 309 308 306 306 306 308 308 308 308 309 308 310 310 310 310 311 310 309 308 307 303 299 299 301 303 304 305 306 306 306
313 311 308 307 308 309 310 310 310 310 311 311 311 311 311 311 310 309 309 308 307 307 308 309 308 307 310 311 309 309 310 309 310 311 313 318 316 306 301 304 306 306 307 307 307 310 316 316 312 312 313 311 311 310 312 315 311 309 310 308 306 306 305 307 309 309 309 308 308 309 309 310 310 309 309 309 308 308 307 304 301 301 302 304 304 305 305 304
313 312 309 307 308 308 308 309 309 309 310 311 311 311 311 311 311 310 309 310 309 307 307 308 308 308 310 309 309 309 309 309 309 309 311 314 314 307 301 301 304 304 305 306 306 310 316 314 310 312 312 310 311 310 311 312 312 311 311 309 307 306 305 307 308 308 309 309 309 309 308 309 309 308 309 309 308 308 309 308 306 304 305 306 305 305 304 303
313 313 310 309 310 309 308 308 309 309 309 309 310 311 311 311 311 311 310 309 309 308 309 309 309 309 309 309 309 309 308 309 309 309 309 310 310 309 306 304 303 303 305 306 305 308 312 312 311 312 311 310 310 309 310 310 309 309 310 310 308 306 305 306 307 307 308 309 309 309 309 309 309 308 308 308 308 308 308 307 307 307 307 306 306 305 302 302
313 313 312 310 310 310 308 308 308 309 309 309 309 310 311 311 311 311 311 310 309 309 309 310 310 309 309 309 310 309 308 308 309 309 309 309 310 312 311 309 305 301 303 307 306 306 309 310 311 310 310 310 310 309 309 308 308 308 308 308 308 307 306 306 306 306 307 307 308 308 309 308 308 308 308 308 308 308 307 307 307 307 307 306 306 304 302 302
314 313 313 311 310 310 309 308 308 309 309 309 309 310 309 310 311 310 310 311 311 310 309 309 310 310 309 310 309 308 308 308 309 310 310 310 311 312 311 312 311 304 303 307 308 306 306 310 311 310 310 311 310 310 309 309 308 308 308 308 308 307 306 306 305 306 306 306 306 306 307 307 307 307 308 307 307 306 306 307 307 307 307 307 306 305 303 302
314 314 313 312 311 310 310 310 309 309 309 309 309 310 310 309 310 310 310 309 310 310 309 309 310 310 310 310 309 308 308 309 309 309 309 309 310 311 311 312 313 310 306 306 308 307 307 309 310 310 310 311 310 310 311 310 309 308 308 309 308 308 308 307 307 307 307 307 306 306 306 306 306 307 307 307 307 307 307 306 306 306 307 306 306 306 305 304
313 314 314 313 311 310 310 311 309 309 309 309 309 309 310 310 309 310 310 308 307 308 308 309 310 310 309 309 309 309 308 308 308 308 308 308 308 309 309 308 310 312 310 307 308 308 308 309 309 309 310 310 310 311 311 311 310 309 310 310 309 309 309 309 309 309 308 308 308 308 308 307 307 308 308 308 308 308 307 306 306 306 306 306 306 306 306 305
Wind_Speed
8 8 8 8 8 8 8 9 9 9 9 9 10 10 11 11 11 11 12 12 12 10 9 7 3 1 1 2 3 3 3 2 2 3 2 1 3 5 6 7 7 8 8 8 9 8 6 5 4 2 3 6 4 3 4 4 2 2 2 3 1 3 3 5 7 7 4 1 5 11 15 10 4 10 11 6 8 9 11 18 18 19 26 23 15 9 8 21
8 8 8 8 8 9 8 9 9 9 10 9 9 9 10 10 10 10 10 11 12 10 9 8 6 3 3 3 3 2 1 1 2 4 4 2 2 3 4 5 6 7 7 7 9 8 8 6 1 2 5 7 4 4 4 2 3 2 3 2 2 5 4 6 7 8 5 1 4 12 14 12 7 12 14 6 6 9 8 14 19 20 25 27 22 16 13 22
8 8 8 8 8 8 9 9 9 10 10 10 10 9 10 10 10 10 9 10 10 10 9 8 7 5 3 4 5 4 3 4 6 7 6 4 2 3 3 3 4 5 5 6 7 8 11 8 2 4 6 6 4 5 4 2 1 1 3 2 4 6 4 6 8 8 8 2 3 10 12 11 8 12 15 7 4 7 10 15 18 23 28 28 26 21 18 23
8 8 8 8 8 8 8 9 9 9 10 11 11 11 11 11 11 11 10 10 10 10 9 8 7 6 4 4 5 7 7 8 9 9 8 6 4 3 3 2 2 4 5 6 6 8 11 10 4 6 7 5 4 5 3 4 1 1 3 3 4 3 2 5 7 7 9 5 3 9 9 8 9 12 14 9 3 5 16 25 24 26 29 28 27 24 22 26
9 8 8 8 8 8 8 8 9 9 9 11 12 12 12 12 12 12 12 11 10 10 9 8 7 6 5 4 4 6 5 5 5 10 9 7 5 4 4 3 0 3 4 6 6 7 10 9 4 6 5 3 3 3 1 3 3 2 1 4 3 4 1 3 4 4 7 6 4 8 7 7 9 12 17 15 8 10 18 26 26 27 28 26 26 25 26 29
10 9 9 9 9 9 9 9 9 9 9 10 11 12 13 12 13 13 13 13 12 11 10 9 7 6 5 4 4 5 5 2 4 8 8 8 6 5 5 4 2 1 4 6 7 6 8 9 4 3 4 3 2 2 1 0 3 2 2 5 4 6 4 3 3 4 6 6 6 7 7 8 9 9 17 23 23 22 20 19 18 21 25 26 24 26 28 31
11 11 10 10 9 9 9 9 9 10 10 10 11 12 13 13 13 13 13 13 13 12 11 10 8 6 5 5 5 6 10 10 8 8 9 9 7 6 5 4 4 3 4 5 6 6 7 10 6 4 5 3 1 2 1 1 3 2 1 3 4 8 7 5 5 6 6 7 7 5 5 8 10 7 9 22 34 30 25 21 15 15 19 24 25 28 29 30
12 12 12 12 11 11 10 11 11 11 11 10 11 11 13 14 13 13 14 13 13 13 12 11 9 7 5 5 5 7 12 13 10 9 11 10 9 7 6 5 5 4 4 5 6 5 7 8 7 4 3 2 3 3 1 1 2 2 2 3 4 7 8 7 8 9 8 8 9 6 8 10 11 8 8 26 36 29 28 28 22 18 16 21 27 30 31 31
13 13 13 13 13 13 12 12 12 12 12 11 11 12 13 14 15 15 14 14 14 13 13 12 10 8 6 6 6 7 9 8 7 9 10 11 10 8 7 6 5 5 5 5 5 5 5 6 5 2 3 4 4 2 2 1 2 2 3 4 4 6 7 8 9 10 9 10 8 7 10 12 9 7 14 30 32 24 26 28 28 24 20 22 26 30 32 33
14 14 14 14 13 13 14 13 13 13 13 12 12 12 13 14 15 16 16 16 15 15 14 13 11 8 7 6 4 4 5 5 6 9 10 11 11 9 8 7 6 6 5 5 5 5 4 5 5 3 5 5 4 2 2 1 1 2 3 4 6 8 9 8 9 9 9 9 9 8 8 10 6 1 11 20 14 13 18 23 26 26 25 25 26 31 33 34
16 15 15 15 14 14 14 14 14 14 14 14 13 13 13 15 16 16 17 17 16 17 16 14 11 9 8 7 7 6 7 7 6 8 10 12 12 11 10 9 8 7 6 6 5 4 3 5 4 2 3 3 2 2 2 1 1 2 2 4 6 7 9 9 8 8 6 5 9 9 5 6 1 3 17 22 12 10 12 17 22 24 26 27 27 31 34 36
18 17 17 16 16 15 15 15 15 15 15 15 15 14 14 15 17 17 18 18 18 19 17 14 10 8 8 10 12 11 10 10 9 9 9 11 12 12 11 10 9 8 7 6 5 4 3 4 4 0 1 3 3 2 2 1 1 1 1 3 5 6 4 6 4 4 5 3 5 5 3 6 5 12 26 23 15 14 13 15 20 23 25 26 28 32 34 36
19 19 18 18 17 17 16 16 16 16 16 16 16 16 16 17 18 18 19 19 20 20 16 12 9 9 9 11 12 11 10 10 11 10 9 10 11 12 12 11 10 9 8 7 6 5 4 3 3 1 2 4 3 2 2 1 1 1 2 1 4 7 4 2 1 1 4 3 5 6 4 7 9 21 29 20 16 15 14 18 20 23 25 26 29 32 35 37
21 20 20 19 18 18 18 17 17 17 17 17 17 17 17 18 18 19 20 21 21 19 14 11 9 9 10 10 11 11 11 11 11 11 10 11 11 12 12 12 11 9 8 7 6 5 5 3 3 2 3 3 4 4 1 3 2 0 1 1 1 2 4 4 1 3 3 3 8 7 3 9 8 15 20 19 20 17 17 21 21 24 26 28 31 33 36 38
22 22 21 20 19 19 19 19 19 19 19 18 18 18 18 19 19 19 20 21 21 18 15 13 11 10 10 12 12 11 11 12 13 12 12 12 11 12 12 11 10 9 8 7 6 5 4 3 1 2 2 2 3 3 2 4 3 2 1 3 2 1 4 7 3 6 4 2 7 6 3 10 12 11 13 16 18 18 21 23 23 25 27 29 32 34 37 38
23 23 22 21 20 20 20 20 19 19 20 19 19 19 19 19 20 19 19 19 19 18 17 14 12 8 8 10 9 9 10 11 11 12 12 12 12 12 11 11 9 8 7 7 6 4 3 2 1 2 2 2 3 3 3 4 4 3 1 3 3 2 3 6 3 4 4 1 4 5 3 7 8 6 7 11 15 18 21 24 24 27 28 31 33 35 38 39
24 24 23 22 21 21 21 21 20 20 21 20 20 20 19 20 20 20 18 17 17 19 16 12 10 8 8 10 8 8 9 10 11 12 12 12 13 12 11 10 8 8 7 6 6 4 3 1 3 2 2 2 2 4 3 3 4 3 1 2 4 3 2 4 4 2 0 2 4 5 4 10 13 11 11 11 14 17 22 26 27 28 31 33 34 36 38 40
26 26 25 24 23 22 22 22 22 22 22 21 21 21 21 21 20 19 17 16 16 15 12 9 5 3 6 8 7 7 9 10 11 12 13 13 13 13 12 10 8 8 5 4 5 4 3 0 3 0 3 3 2 5 2 4 4 3 3 2 4 3 3 5 5 2 2 1 4 4 7 14 17 19 23 19 16 20 27 30 30 31 33 33 34 36 38 41
29 28 28 26 25 24 23 23 23 23 23 21 21 21 21 20 17 16 13 11 9 6 5 6 6 3 5 9 12 15 15 13 11 12 13 13 13 12 12 10 9 7 3 2 3 2 1 1 2 1 1 2 4 6 7 8 7 5 5 4 4 5 5 6 5 3 1 1 7 8 10 14 15 19 22 21 17 23 31 31 29 31 32 32 33 36 39 42
30 30 30 29 28 26 24 24 24 24 23 23 22 20 17 12 9 9 9 10 10 11 12 12 12 14 16 19 21 20 17 15 14 12 12 12 12 11 10 9 7 4 3 3 2 1 2 1 4 6 7 8 8 8 6 4 5 4 4 4 5 5 6 5 3 3 1 1 9 10 9 12 16 17 20 22 17 20 28 26 26 31 31 31 32 36 39 42
30 31 31 30 30 29 27 25 25 24 23 22 20 17 12 7 4 6 9 13 15 16 18 20 20 23 24 24 24 21 17 15 14 14 13 12 11 8 6 6 3 3 2 3 3 2 3 4 8 9 8 6 5 6 6 5 5 4 4 4 4 4 7 6 2 4 2 2 6 7 7 12 17 16 19 19 12 20 27 22 26 33 31 30 32 36 39 39
27 29 30 31 31 30 28 26 26 24 22 20 17 13 10 9 9 10 10 12 17 18 18 21 23 25 27 26 27 25 18 12 13 16 15 13 12 9 6 4 4 3 2 3 3 2 1 6 10 7 6 6 5 5 6 6 5 3 3 2 4 3 5 6 3 4 2 2 5 6 8 15 18 17 21 19 16 28 33 24 30 34 29 30 33 36 37 37
24 26 27 28 29 29 27 26 25 24 22 18 15 12 11 11 10 10 9 7 15 20 19 20 22 24 26 26 27 24 18 13 12 15 16 15 14 11 8 6 4 2 0 3 6 3 2 7 7 6 10 8 5 4 6 5 3 2 3 2 5 3 1 4 3 4 2 2 4 7 10 14 15 15 18 17 18 29 35 29 33 34 29 32 34 34 35 36
22 24 25 24 24 24 23 24 23 22 20 16 14 12 10 9 8 9 9 5 8 13 16 18 18 21 23 21 20 18 17 15 12 10 14 17 14 9 8 7 5 2 4 6 8 7 7 6 4 8 6 7 6 3 5 5 2 3 5 6 6 4 5 6 3 4 3 2 2 6 10 10 7 9 10 7 6 16 24 25 29 32 30 32 31 32 34 35
22 24 24 23 21 19 18 19 19 20 18 13 11 10 7 6 6 7 7 3 4 7 10 12 13 16 18 15 14 13 11 13 15 12 11 16 17 9 4 7 6 4 6 7 7 6 9 5 9 7 2 5 6 4 5 7 3 4 6 10 9 6 7 5 3 4 3 3 2 4 7 7 1 3 7 4 3 7 9 12 20 25 24 26 28 30 32 33
22 23 24 24 20 16 14 12 13 14 12 10 9 8 5 4 3 6 5 2 4 5 4 6 7 8 10 10 10 9 3 7 13 15 12 14 18 11 4 5 4 3 6 7 4 4 3 2 6 6 5 5 5 5 6 7 4 3 4 7 7 5 4 3 1 2 0 2 3 3 2 8 2 1 7 5 4 9 8 9 19 22 19 22 27 28 29 30
21 22 23 24 20 15 11 9 10 10 7 7 8 8 5 3 1 4 4 3 5 5 5 6 7 7 8 8 13 11 2 3 7 12 16 15 17 14 6 4 2 2 5 5 2 3 2 4 3 4 6 5 5 6 6 9 7 3 3 4 6 6 5 5 3 1 3 1 4 0 2 8 8 5 7 5 5 11 12 13 18 21 20 21 25 26 24 24
19 20 21 21 19 14 11 10 10 9 9 8 7 8 6 5 4 3 3 4 5 4 5 5 6 8 8 11 17 10 1 4 5 7 15 15 15 12 6 7 6 4 4 5 4 4 3 5 5 6 5 4 6 5 7 11 5 4 3 6 6 5 5 4 4 3 2 3 4 4 4 5 10 5 2 2 4 10 14 15 15 17 19 20 21 20 17 17
17 18 19 19 16 13 10 10 10 10 11 11 9 8 8 7 4 4 2 5 3 3 4 5 7 7 7 10 13 9 2 2 2 6 12 12 14 8 2 7 7 5 2 3 5 4 2 4 6 8 6 6 5 1 4 7 3 3 6 6 5 4 4 3 3 2 1 1 7 7 7 5 10 4 3 2 3 9 12 12 12 15 19 19 17 14 12 13
18 17 17 17 15 11 9 9 12 12 11 13 11 9 10 8 5 2 4 6 2 1 4 6 6 6 8 7 6 7 4 2 2 8 8 6 10 6 2 4 4 4 0 3 3 4 1 2 2 4 5 5 6 3 2 2 4 8 7 4 4 4 4 3 1 2 1 4 8 8 12 10 8 3 5 4 5 9 9 8 9 12 18 20 16 12 11 12
19 18 16 15 14 11 8 8 12 14 14 13 12 13 11 6 4 3 8 4 1 1 4 3 3 5 9 6 3 4 3 2 4 9 5 3 5 4 4 4 2 3 2 5 4 3 1 2 2 3 6 8 8 5 4 4 5 6 4 3 3 4 3 4 3 3 1 6 4 3 8 9 10 6 4 6 7 7 9 8 8 9 16 20 16 13 11 13
19 18 16 15 14 12 9 9 11 14 16 14 14 15 10 2 2 6 4 1 0 4 4 3 2 4 6 2 1 4 3 2 5 7 5 4 4 5 4 5 5 2 3 5 4 4 1 4 2 2 5 7 6 5 3 3 2 4 3 4 2 4 3 4 3 1 3 7 2 2 3 5 12 11 7 9 10 10 10 11 11 11 15 18 16 13 13 14
19 17 16 17 17 14 10 10 12 14 16 17 17 12 8 1 7 5 4 3 3 3 2 2 1 3 4 2 2 4 2 3 5 4 3 3 3 5 6 5 6 2 3 5 1 2 3 4 2 3 3 8 9 6 3 2 3 6 5 4 3 1 0 3 4 2 5 7 3 3 3 4 9 9 12 17 18 17 16 19 20 17 18 18 16 16 17 18
19 17 17 18 18 15 10 9 13 14 16 20 16 7 5 6 6 4 7 8 2 1 2 3 3 3 3 3 4 4 3 4 5 5 3 3 2 5 6 7 6 2 2 3 1 3 4 6 5 6 3 10 12 7 6 6 5 5 4 5 5 5 4 5 4 4 7 6 4 1 2 4 5 4 8 14 16 17 20 25 24 21 23 21 20 21 22 22
19 19 19 19 20 16 9 8 14 15 18 21 12 4 6 10 4 3 6 6 1 0 1 2 5 4 3 4 3 3 5 5 3 5 4 5 5 5 5 7 9 6 5 3 3 3 3 8 6 3 2 11 10 5 7 8 3 3 3 4 3 5 5 3 3 4 1 4 5 3 4 6 4 3 4 6 7 9 16 21 20 24 27 23 22 25 26 26
20 21 21 22 24 18 8 9 14 16 19 17 7 4 11 9 4 5 5 5 5 5 4 1 3 4 5 3 2 5 4 2 2 3 4 4 4 6 4 5 10 12 10 7 3 3 2 5 2 2 1 6 6 4 5 3 3 3 2 4 3 3 6 3 2 1 4 3 6 2 5 10 7 5 6 6 5 6 10 11 13 22 24 18 21 27 28 28
22 25 27 28 27 18 11 12 16 18 17 11 6 9 8 4 5 6 4 5 4 6 8 3 4 6 5 3 4 6 4 2 2 3 4 3 4 7 6 5 8 16 18 10 3 4 4 4 3 3 3 3 2 3 3 2 3 6 4 5 3 2 4 3 2 3 2 5 5 5 11 16 12 7 2 3 4 8 11 9 10 17 17 15 24 30 30 30
27 28 31 34 31 20 14 15 18 19 13 6 10 13 4 2 4 3 4 5 3 5 6 6 5 6 6 5 3 4 5 4 4 4 4 3 5 6 8 5 7 16 22 13 2 3 4 3 5 2 1 0 2 2 2 3 2 4 4 2 4 3 2 2 2 2 3 4 4 10 16 17 13 9 6 5 8 10 11 10 11 12 12 17 26 30 30 29
30 27 28 35 32 23 19 18 21 20 11 5 11 12 3 1 4 2 6 6 3 4 5 6 5 3 4 6 3 3 6 6 6 5 4 4 5 4 8 6 7 12 19 16 6 2 3 3 4 1 2 1 2 1 5 3 1 2 0 0 2 2 4 3 3 3 3 4 5 11 14 15 10 7 8 11 11 11 10 10 10 11 15 22 27 28 28 27
32 20 17 24 22 22 25 24 23 17 8 7 11 9 2 1 5 9 15 12 4 4 5 4 5 4 4 6 4 4 6 6 6 5 4 5 5 4 6 8 5 4 8 10 6 1 3 3 5 1 3 1 3 6 8 8 6 4 3 3 2 1 2 1 1 2 3 4 4 6 10 17 9 6 8 9 9 11 11 11 10 11 18 24 26 27 26 25
32 13 9 13 15 26 33 26 17 11 5 7 9 7 4 5 6 9 16 16 9 5 5 4 7 6 5 6 4 5 5 4 6 6 4 6 5 5 9 12 10 8 5 2 3 3 3 3 5 2 2 5 7 5 2 4 8 9 7 8 8 6 4 1 5 2 2 4 5 5 8 18 9 6 6 7 8 9 11 11 9 12 20 25 25 26 25 24
27 11 11 15 20 35 38 18 9 10 6 7 8 8 9 8 6 6 11 13 9 5 4 4 6 7 6 5 4 5 6 4 6 7 5 6 8 7 9 14 16 15 10 4 3 3 3 2 3 5 6 6 5 2 1 3 5 5 4 6 7 6 7 6 8 5 2 2 3 3 4 17 11 6 6 6 8 10 13 14 10 13 21 23 23 24 24 24
26 16 14 18 27 43 34 8 7 10 5 6 6 7 10 7 3 5 8 11 8 5 5 5 5 7 7 4 4 5 6 6 7 7 4 5 9 10 9 15 18 13 6 3 1 3 3 2 3 6 6 3 3 4 3 3 3 3 5 4 6 8 9 8 6 3 3 5 4 3 4 18 13 4 6 5 6 9 13 15 13 14 19 22 22 23 24 24
29 21 18 23 35 44 28 6 8 11 9 8 7 9 10 7 7 9 7 9 10 6 6 7 5 6 7 4 5 7 7 7 7 7 7 6 6 7 12 21 21 10 6 6 7 9 6 3 4 4 6 5 3 2 3 4 1 4 4 5 8 11 8 3 1 1 4 8 8 5 8 18 11 3 5 4 5 5 8 13 16 15 17 21 22 22 24 25
19 13 16 30 45 45 27 12 8 9 12 13 11 12 11 7 12 19 14 11 12 8 5 6 5 6 6 3 3 7 8 9 9 5 6 7 4 2 11 24 25 13 8 8 10 13 9 4 7 7 8 10 11 8 4 1 2 3 2 6 11 15 13 7 2 5 10 7 8 7 15 20 15 9 9 9 6 5 7 11 15 17 19 21 22 24 27 28
12 7 7 19 37 38 29 21 12 6 10 14 10 10 14 11 10 16 17 13 14 12 5 3 3 4 5 6 7 11 12 12 9 5 5 6 3 2 3 16 19 9 3 4 10 12 4 2 10 13 14 14 14 13 6 6 4 5 6 9 12 15 16 11 7 11 10 3 5 15 23 22 20 22 25 21 11 8 10 10 12 17 21 23 26 30 30 30
10 8 7 10 18 20 21 22 17 8 7 11 8 6 14 16 8 7 13 13 16 16 8 4 6 6 8 11 12 14 15 11 7 10 13 9 5 3 1 7 10 6 1 1 8 8 2 4 12 16 19 17 18 20 9 7 7 9 8 11 14 14 15 14 16 17 8 4 11 23 22 17 20 26 32 30 19 11 13 14 14 19 24 26 28 30 29 30
10 9 16 19 13 6 11 20 21 16 11 11 10 7 11 15 11 10 12 9 10 16 10 6 12 17 18 18 14 11 11 8 7 13 17 11 4 1 1 3 5 6 3 1 3 5 3 7 12 14 18 18 19 22 11 7 8 8 8 13 16 15 16 19 24 23 14 12 19 22 17 15 21 29 33 29 18 10 14 21 23 25 26 24 25 27 26 27
16 8 14 22 16 10 20 29 25 20 18 13 10 11 13 17 19 16 8 3 4 13 15 12 17 25 26 21 14 9 9 9 12 15 14 9 5 3 3 4 2 4 5 3 3 4 4 6 10 11 13 14 17 20 11 6 9 11 11 14 19 20 17 20 27 28 22 21 20 19 19 19 25 31 29 25 22 17 20 29 32 31 30 28 29 29 27 28
24 15 12 17 17 16 21 24 17 13 15 15 11 12 15 19 21 16 9 10 11 10 14 21 24 21 18 16 14 13 17 19 19 17 10 7 6 5 4 5 3 1 3 4 3 3 4 7 8 7 8 12 17 19 11 8 12 15 15 20 26 24 18 20 26 24 19 18 17 17 18 20 27 29 21 22 28 24 22 29 35 38 36 33 33 32 29 30
34 34 25 14 10 14 17 14 11 9 10 12 12 14 15 19 22 18 12 16 18 10 11 22 27 14 6 11 16 21 27 27 24 22 15 11 10 10 8 7 7 5 4 5 3 3 4 5 4 4 7 12 16 16 10 8 8 10 16 27 31 24 19 23 23 16 13 16 17 16 15 18 25 22 14 16 20 18 19 24 29 36 37 31 32 35 33 32
31 37 36 22 7 11 14 10 9 11 9 11 16 18 18 20 22 17 10 12 20 23 21 20 19 11 4 10 22 31 37 34 31 33 27 16 13 15 15 12 10 8 6 5 3 3 4 4 4 6 8 12 16 13 5 4 3 9 15 21 23 22 23 26 21 14 14 14 14 15 16 20 22 17 14 15 13 12 18 24 28 33 32 29 34 38 36 33
Wind_Direction
1 3 3 4 4 4 3 0 359 2 6 11 13 13 14 19 24 23 23 27 27 22 19 18 359 305 216 152 148 151 141 143 155 159 172 135 100 95 84 66 60 51 46 45 41 39 33 7 319 257 172 158 141 133 105 56 80 124 102 102 167 185 197 190 186 196 170 187 210 190 184 179 198 199 195 205 212 212 206 208 212 213 219 225 223 228 219 200
355 356 357 357 357 356 355 353 351 350 350 354 359 1 1 2 8 13 14 16 21 22 17 14 5 328 268 239 199 187 187 240 247 220 211 198 132 116 100 76 65 53 47 42 40 34 25 16 313 188 163 154 134 134 128 55 70 96 105 99 230 197 201 203 192 197 183 30 199 190 187 191 210 195 191 208 213 200 206 216 218 222 225 227 227 230 221 202
347 350 351 353 354 353 350 348 346 343 342 341 343 345 347 348 349 355 1 2 9 15 15 10 2 347 301 255 233 233 247 267 263 239 213 205 192 159 137 95 65 52 43 34 35 25 16 19 75 154 156 141 127 134 115 50 91 112 103 111 245 214 231 225 210 215 214 257 176 184 192 202 218 195 190 204 205 193 212 219 215 224 229 227 225 226 216 203
337 342 345 349 351 351 350 348 345 341 338 335 335 336 336 337 337 337 342 347 352 360 6 8 360 348 325 279 255 247 258 282 266 235 215 210 205 187 174 144 62 37 28 21 23 17 13 17 78 142 142 123 116 136 97 25 121 192 124 168 231 195 242 228 220 238 226 234 196 180 183 212 221 198 196 196 190 222 230 230 227 236 238 227 220 218 211 205
326 331 337 341 344 347 347 347 344 342 338 334 332 331 331 331 330 328 329 333 337 344 351 357 357 344 327 298 276 254 262 310 245 212 215 216 208 206 199 196 200 16 6 10 10 6 10 18 81 135 121 107 86 112 51 22 117 145 186 230 226 169 206 267 233 236 219 214 188 171 171 214 206 203 210 199 202 237 241 245 245 248 248 237 227 219 210 206
316 320 328 332 336 339 340 341 341 341 338 335 331 328 328 327 326 324 323 325 327 331 336 343 348 343 329 299 283 255 235 258 216 210 221 219 215 215 209 220 228 326 341 358 1 352 6 21 61 130 96 78 60 99 109 23 161 177 271 256 234 196 209 295 259 235 223 208 187 180 198 211 191 218 227 214 226 241 249 259 257 252 249 242 233 221 213 209
308 313 318 323 328 330 333 334 333 335 335 335 332 328 326 324 324 321 319 321 321 323 326 329 334 334 324 299 281 257 244 253 257 245 234 223 223 222 214 229 234 270 325 348 344 338 360 20 51 103 97 83 162 150 83 177 182 156 237 254 227 215 230 268 266 244 232 225 228 216 217 214 202 229 239 231 241 245 248 256 256 255 246 236 227 220 219 216
304 309 313 317 321 324 325 326 327 329 331 332 332 329 326 323 322 320 318 319 318 319 319 319 323 325 320 299 280 269 260 261 263 249 234 226 230 228 225 235 240 264 303 333 333 333 351 14 49 89 109 103 157 169 81 119 177 120 181 233 215 226 244 260 263 247 237 239 246 245 242 237 229 243 259 255 258 254 248 251 250 252 245 232 225 221 220 217
300 305 310 314 316 319 320 322 323 323 326 329 330 329 326 322 321 321 319 319 317 316 316 314 314 314 311 294 280 278 270 260 254 243 233 230 233 233 236 242 246 256 275 311 326 325 342 9 31 61 164 149 140 156 115 135 245 174 179 217 217 241 256 257 256 247 244 245 240 242 253 257 254 267 270 265 267 263 251 248 247 247 243 234 226 223 221 218
292 297 302 306 310 314 315 317 318 320 323 326 326 327 324 321 320 320 320 321 318 314 313 310 308 305 301 288 258 256 274 268 255 245 237 235 236 238 240 244 248 251 264 292 315 311 327 358 10 76 142 150 137 146 143 125 255 211 211 232 229 246 261 259 253 247 247 250 236 228 254 267 255 234 265 265 271 264 249 242 242 241 240 237 229 225 222 221
285 290 293 298 302 305 308 312 314 316 319 322 325 324 322 319 318 318 320 320 317 314 311 307 304 296 293 280 232 232 277 278 263 253 241 240 241 242 243 242 247 249 258 279 300 292 297 342 360 92 142 160 140 155 176 157 259 273 282 258 254 265 264 252 252 251 238 248 238 223 254 273 179 162 247 254 266 268 253 241 239 237 237 236 230 226 222 222
280 284 288 292 295 299 303 305 308 311 315 319 323 323 322 317 315 316 317 318 316 314 309 304 299 291 293 275 253 258 280 275 266 265 250 244 242 240 242 242 247 251 258 272 286 276 266 321 340 348 172 166 146 110 155 163 248 285 18 279 295 338 303 245 256 246 201 228 227 191 274 263 189 225 244 250 260 261 252 242 239 236 236 232 228 225 222 222
276 279 283 287 291 295 299 301 303 306 310 314 318 321 321 317 315 316 316 316 316 315 311 304 295 291 289 276 271 275 275 270 267 264 253 245 239 238 239 241 246 251 257 268 278 270 247 289 320 261 150 148 155 140 156 82 104 222 64 39 312 353 335 241 64 142 175 208 181 147 279 262 214 232 244 252 253 249 240 239 239 236 234 230 227 224 223 222
272 275 278 282 287 290 294 297 299 302 305 308 312 315 317 315 314 316 316 315 315 314 310 305 298 292 281 272 280 280 272 270 265 257 252 245 239 239 240 242 247 251 262 269 278 272 245 278 313 203 136 115 142 144 92 18 57 227 14 37 8 343 285 282 9 140 154 207 179 152 269 267 254 244 248 252 248 243 238 239 240 236 234 231 227 224 224 223
268 271 274 278 281 285 288 291 294 298 300 303 306 309 312 313 312 315 315 313 312 309 306 303 296 289 280 276 277 277 274 268 261 255 250 244 241 241 241 244 248 252 265 268 274 273 251 264 261 160 125 121 127 118 8 357 16 27 336 304 339 190 267 302 290 181 200 211 175 166 245 271 277 272 259 247 241 238 238 242 241 239 237 233 229 225 226 226
264 267 270 273 276 279 282 286 290 293 295 299 301 304 309 310 309 312 311 309 304 301 303 298 287 281 280 280 276 274 273 263 259 256 249 246 242 241 244 249 253 259 268 271 272 257 249 265 160 130 126 155 118 90 36 4 338 6 55 256 271 217 276 313 305 210 222 169 187 213 242 278 280 275 253 232 234 235 236 242 241 241 241 235 232 228 227 227
263 263 265 268 271 274 278 282 286 289 291 295 297 300 304 306 307 309 306 302 297 297 299 287 276 279 271 270 268 269 275 267 260 254 248 247 244 243 246 250 255 264 268 266 261 234 241 254 148 149 69 81 83 89 45 331 296 323 16 256 251 225 253 294 302 310 159 158 223 237 236 257 265 273 263 242 244 241 237 243 244 245 245 239 234 230 229 228
265 264 263 264 266 269 274 278 282 285 288 292 297 300 304 306 307 306 300 294 292 295 294 268 253 288 269 257 259 277 288 279 265 255 249 247 245 244 246 251 258 263 267 258 244 216 234 162 123 155 24 32 53 103 164 242 215 232 235 247 273 255 239 252 264 300 71 148 242 237 242 254 264 273 269 259 251 246 248 251 249 249 247 242 235 232 233 231
267 267 266 265 265 266 269 274 277 281 285 290 295 299 304 306 304 298 289 285 289 292 278 236 205 211 264 274 281 286 288 279 269 258 250 248 246 246 247 251 254 249 233 212 228 182 170 64 95 243 260 212 202 171 200 211 177 190 205 197 234 256 258 240 238 256 91 248 255 239 242 255 263 269 271 267 253 247 254 256 252 250 248 242 237 236 236 235
268 268 268 268 268 268 269 272 274 278 284 288 294 300 307 309 307 298 279 275 283 279 270 256 245 254 269 279 282 281 278 270 265 257 250 247 243 247 249 243 242 236 204 178 205 125 101 221 229 221 217 213 215 199 189 172 137 134 148 183 226 240 267 261 243 290 46 217 260 251 247 259 261 263 268 270 264 250 252 253 249 249 246 241 237 239 239 240
268 268 269 270 270 270 271 272 273 276 281 287 295 305 310 306 298 298 293 290 285 274 269 266 263 264 268 273 275 273 268 265 260 250 248 246 235 237 237 221 198 214 241 154 146 80 91 213 236 225 214 204 195 170 133 115 104 104 149 205 255 232 257 270 281 318 359 170 264 280 278 266 261 263 265 262 257 253 251 245 248 250 247 242 240 243 244 245
272 271 270 270 269 269 270 271 271 273 277 282 291 300 300 289 282 289 300 296 284 276 271 267 265 264 266 266 265 263 256 253 254 245 242 238 226 222 208 170 153 197 271 110 127 29 57 241 247 214 162 108 91 114 112 112 110 101 136 178 263 242 271 297 341 347 3 183 270 296 288 272 265 264 263 252 238 254 259 251 252 253 246 243 243 245 246 245
279 278 275 273 271 271 270 270 269 270 272 275 282 286 285 285 285 292 296 284 285 284 273 265 263 261 261 259 257 251 238 236 250 245 237 227 216 211 195 158 147 179 232 171 175 167 212 257 254 174 143 111 85 88 99 101 116 148 151 176 251 247 290 288 310 325 278 219 276 288 277 269 265 258 262 259 242 253 263 260 259 256 248 246 249 251 250 247
283 283 283 282 281 277 272 269 268 268 269 269 275 276 276 280 282 298 299 274 280 284 269 259 256 253 253 251 248 239 229 233 243 240 228 214 198 194 197 170 142 187 223 193 178 191 229 242 152 132 134 119 115 127 135 150 235 246 196 206 238 231 221 238 282 322 307 312 316 306 290 275 261 250 258 280 259 255 261 261 259 253 248 249 251 253 253 250
283 284 286 287 289 289 279 270 265 264 265 266 270 266 266 273 282 310 314 291 274 276 268 252 244 246 243 240 237 223 220 236 238 232 219 205 192 177 175 172 169 215 211 166 158 217 251 213 144 133 108 117 138 196 193 177 212 293 229 215 222 224 232 250 324 353 356 333 330 0 318 291 301 249 261 293 318 274 263 260 261 255 246 243 243 248 251 251
284 286 288 286 288 292 284 269 258 257 257 255 250 243 247 254 286 320 328 352 279 255 233 217 216 225 220 219 209 189 203 253 232 223 211 202 197 184 154 166 178 212 178 145 153 225 252 164 141 147 155 154 175 233 225 172 154 294 247 205 200 199 212 230 2 11 257 254 300 49 310 276 276 210 258 266 275 276 275 273 271 265 251 239 242 249 252 252
286 288 289 287 289 292 282 258 245 240 220 224 223 209 220 208 143 354 359 334 272 211 164 180 181 184 198 189 166 157 192 224 192 204 199 193 194 188 192 189 152 209 175 137 197 240 136 108 85 113 133 154 191 240 222 158 140 241 237 130 137 154 178 193 144 174 230 272 318 316 188 273 274 234 249 253 258 276 275 272 274 270 258 244 248 253 253 254
290 289 291 290 291 293 280 254 237 220 197 191 185 186 183 155 148 63 51 275 266 148 141 170 164 180 192 175 172 173 211 161 147 193 188 184 189 185 213 215 174 189 182 147 211 259 119 152 176 144 127 172 202 237 199 160 155 239 186 115 125 142 152 155 134 189 261 34 303 251 160 273 274 237 266 315 242 260 263 258 262 266 260 251 251 253 251 256
291 291 295 294 292 288 274 249 220 206 201 184 167 174 162 146 145 75 90 249 260 112 143 164 161 182 169 160 190 217 227 156 148 173 172 179 190 182 223 213 166 149 179 169 218 257 91 170 190 150 147 205 206 254 187 175 195 174 130 96 76 72 80 85 122 157 28 355 262 239 167 230 274 221 127 69 205 236 250 253 255 259 260 256 249 244 245 257
292 297 301 299 299 289 267 239 211 201 193 181 175 167 153 145 125 106 232 243 249 120 127 157 175 170 146 143 220 236 206 220 140 144 154 171 186 182 140 167 129 118 320 336 262 249 76 95 192 164 171 175 141 84 58 114 135 127 110 71 47 37 52 48 65 97 24 264 259 234 180 194 270 247 164 185 202 208 218 239 255 259 259 254 241 233 245 262
291 298 302 299 299 288 263 230 210 197 184 177 170 157 148 130 96 189 228 236 273 200 121 164 194 146 155 163 211 206 178 239 171 155 162 156 168 164 128 142 112 88 345 317 282 287 37 121 242 208 166 131 105 70 39 62 108 114 96 72 25 336 13 17 355 54 272 254 261 241 178 189 244 250 202 229 245 218 200 213 230 241 250 244 230 228 250 268
285 293 298 293 295 293 268 231 208 193 187 176 165 158 142 109 243 214 218 44 253 217 166 177 199 162 183 191 199 183 162 217 188 167 169 159 169 185 187 190 167 106 305 248 257 328 277 215 218 163 172 160 122 79 31 12 69 107 102 90 40 318 347 342 305 120 233 254 252 143 144 219 246 246 232 243 254 237 215 213 212 218 238 237 229 237 257 269
277 283 284 281 287 293 274 233 205 190 187 172 163 154 113 189 237 195 167 202 219 215 142 121 118 138 149 146 235 195 160 214 189 170 174 145 173 226 250 228 171 173 254 209 228 335 288 289 147 148 219 190 167 157 192 243 176 165 153 132 142 169 5 284 270 278 273 271 272 145 147 255 270 257 221 222 233 226 218 223 221 224 237 240 240 250 261 267
271 275 273 271 275 282 279 237 201 188 183 171 162 133 109 225 237 138 178 215 233 31 61 82 90 103 148 195 233 191 177 232 171 153 182 135 163 234 243 230 200 160 119 154 172 175 243 287 196 177 193 174 183 200 172 139 152 180 154 141 158 152 178 234 235 254 276 290 292 227 178 231 264 273 211 215 234 230 224 229 231 237 245 248 250 254 259 263
266 269 266 264 263 267 279 239 203 187 181 175 163 128 193 224 229 140 200 208 200 31 44 50 96 118 240 257 271 223 207 237 146 134 185 177 189 212 197 204 198 162 130 173 224 164 218 266 228 185 157 164 178 192 139 117 137 196 124 126 181 177 174 213 213 197 233 317 289 233 218 231 235 280 243 228 250 237 230 233 233 241 246 246 250 253 257 260
257 260 259 256 253 253 259 229 205 191 186 179 168 204 218 227 191 178 198 167 174 163 116 39 105 147 249 268 268 241 204 218 153 145 208 211 223 220 199 208 191 181 180 178 192 166 192 271 253 81 252 189 174 163 146 142 165 164 156 174 203 178 138 140 258 55 74 280 273 254 259 273 284 279 234 214 224 229 235 232 225 236 241 239 246 251 253 255
241 248 250 249 250 247 234 216 198 189 190 186 204 221 222 232 187 179 177 148 157 138 133 205 205 175 219 240 226 211 175 203 186 170 209 221 238 209 199 240 194 190 201 192 197 210 183 268 249 163 219 233 144 106 79 17 122 132 195 207 165 107 94 108 244 356 30 245 271 293 273 276 282 279 245 160 192 225 234 230 229 240 240 237 243 247 249 250
234 240 244 247 249 238 211 199 190 185 181 182 232 237 224 218 214 168 141 145 121 123 156 215 215 174 197 221 232 184 170 195 178 176 206 213 245 194 164 212 199 196 208 202 235 254 170 247 259 164 129 341 64 90 85 2 63 128 197 203 111 142 157 111 170 222 246 236 272 283 277 274 261 252 260 230 208 216 227 225 230 239 234 233 240 243 245 245
227 229 240 248 245 225 202 190 182 179 172 178 231 240 227 233 265 233 180 173 140 159 189 224 223 201 195 191 185 167 184 196 173 181 210 200 236 200 156 191 204 200 205 193 196 247 150 216 253 21 351 357 53 195 187 195 37 70 140 50 61 166 173 167 168 181 207 214 260 278 281 276 251 205 222 230 209 202 210 214 219 229 227 226 234 241 241 239
217 217 242 249 235 208 193 181 173 172 175 207 221 222 189 260 254 226 212 206 181 183 207 219 204 219 221 188 177 182 196 207 182 188 227 204 230 243 189 187 174 170 193 187 199 212 100 212 234 349 340 276 190 210 199 185 170 157 175 177 206 186 126 206 234 126 146 188 239 260 269 272 260 162 188 209 194 195 198 200 211 221 225 229 235 240 237 235
210 214 239 222 195 182 178 171 172 178 195 227 226 220 210 227 231 220 218 217 220 219 205 191 194 207 212 198 200 184 178 204 193 194 234 217 227 250 206 189 164 135 123 133 228 214 148 200 214 194 255 237 227 223 206 193 177 175 189 187 193 181 128 208 250 219 156 185 206 199 251 269 264 133 172 190 175 197 198 196 210 216 223 234 240 236 233 236
201 213 223 189 169 172 170 168 192 196 207 220 217 215 208 216 223 212 213 214 223 236 223 214 210 208 210 203 195 173 171 199 204 202 233 227 219 228 206 185 164 146 136 136 207 191 122 131 209 231 237 236 252 290 307 243 162 157 213 193 180 177 155 190 228 226 175 205 213 123 258 268 260 135 155 183 171 197 199 193 209 223 227 236 238 232 233 240
198 204 202 186 178 174 170 179 216 195 228 233 217 221 206 200 207 197 201 205 206 210 220 228 205 207 230 215 170 180 191 207 206 192 210 237 227 230 206 171 159 147 135 136 159 135 105 121 202 250 269 296 15 18 342 337 94 139 246 190 171 204 199 204 221 188 171 210 197 102 253 264 267 132 147 197 184 195 200 200 215 228 231 236 234 231 236 241
204 199 183 182 183 177 174 200 205 196 229 229 229 240 223 218 221 209 197 194 196 191 208 226 207 205 230 191 175 211 201 207 223 198 199 227 230 223 193 172 167 169 184 182 174 168 169 177 172 220 276 284 297 318 346 339 262 208 235 183 192 219 213 220 352 107 235 220 170 151 246 256 263 106 127 202 200 208 216 215 225 232 233 236 236 237 241 243
204 191 178 184 185 184 191 208 193 196 215 216 227 233 225 239 233 224 219 206 204 195 192 228 217 200 210 165 195 232 208 214 237 215 209 234 242 209 190 183 180 184 207 201 174 168 173 185 175 193 235 239 245 248 222 202 211 217 229 185 198 212 203 199 222 219 234 217 147 182 244 254 266 279 269 249 213 228 242 222 227 239 243 246 248 248 248 246
193 179 171 184 191 201 215 220 215 217 208 209 225 226 220 234 242 227 218 214 219 212 200 234 197 181 207 193 216 238 226 224 232 225 233 235 235 335 196 192 192 193 233 204 170 164 160 204 195 208 226 228 244 253 211 131 153 208 216 201 204 213 205 201 228 232 225 168 169 226 241 255 274 280 274 264 244 253 270 254 242 248 253 257 260 259 255 251
195 189 174 174 198 219 233 229 228 234 209 198 199 211 219 225 245 229 206 209 215 206 207 242 202 200 218 204 214 234 229 222 214 227 241 236 231 307 9 192 210 225 301 186 174 160 113 233 215 221 230 230 245 254 227 146 194 213 201 212 219 214 201 203 229 231 200 146 235 240 242 257 270 270 269 269 267 270 276 274 269 268 266 265 266 264 257 251
211 209 195 190 191 199 217 221 219 217 214 201 197 215 222 221 230 225 208 208 202 191 196 228 214 216 221 211 213 232 228 221 218 228 239 238 225 277 290 192 207 204 183 129 183 161 147 234 229 229 238 240 250 256 235 172 224 227 198 221 232 220 200 207 231 233 210 212 242 250 251 254 259 260 262 268 275 275 274 277 279 276 272 269 267 263 255 251
220 233 210 204 204 192 203 212 211 209 212 207 205 217 220 221 224 220 198 154 202 200 200 217 223 221 222 218 215 223 224 222 228 229 230 226 202 176 215 233 214 190 180 160 201 181 156 235 241 241 254 255 254 257 242 195 243 254 238 241 247 238 217 214 234 239 229 231 246 259 264 262 259 259 262 273 282 283 283 285 283 277 272 270 268 262 255 253
223 228 215 207 216 217 216 217 211 207 212 211 214 220 222 227 229 225 193 179 207 208 196 219 233 226 218 217 213 223 228 224 232 235 211 187 199 191 201 215 182 150 198 185 203 200 186 225 240 250 271 263 257 263 256 222 239 255 260 259 255 250 239 232 241 245 244 249 251 253 261 262 258 260 268 280 283 285 285 280 277 275 273 271 270 267 259 255
236 235 229 222 219 214 217 218 203 204 212 207 212 220 224 230 229 227 220 207 217 219 190 215 235 234 196 203 210 225 230 225 231 236 214 180 191 200 201 198 167 153 198 201 179 179 197 219 238 255 267 259 259 268 261 230 237 252 256 256 255 255 251 245 245 241 240 252 255 249 249 251 256 265 273 271 273 275 271 268 268 270 270 268 269 270 264 257
248 245 240 240 228 192 203 214 203 208 215 205 211 216 218 226 226 226 235 225 224 228 217 212 227 230 183 204 218 228 233 231 235 240 236 223 209 206 201 187 164 158 177 181 163 168 184 208 232 234 245 255 257 255 220 152 221 249 245 248 253 257 255 254 257 250 233 238 250 251 248 252 261 269 266 260 259 255 257 261 263 266 269 270 269 267 264 262